This demonstration page uses our WeatherBlox Daily Observations layout. Learn more.

Left ArrowRight Arrow

Hourly Observations for February 6, 2018

Temp ( °F °C ) Dew Point ( °F °C ) Humidity (%) Winds ( mph kmh ) Pressure ( in mb ) Visibility ( mi km ) Precip ( " mm )
12:54 am 00:54 Clear 7 -13.9 0 -17.8 73 73 N 14 22 30.45 1031 10 16 0.00 0.00
1:54 am 01:54 Clear 7 -13.9 -1 -18.3 70 70 NW 7 11 30.52 1033 10 16 0.00 0.00
2:54 am 02:54 Clear 6 -14.4 -2 -18.9 69 69 N 8 13 30.50 1033 10 16 0.00 0.00
3:54 am 03:54 Clear 2 -16.7 -4 -20 76 76 N 8 13 30.50 1033 10 16 0.00 0.00
4:54 am 04:54 Clear 2 -16.7 -4 -20 76 76 N 6 9 30.50 1033 10 16 0.00 0.00
5:54 am 05:54 Partly Cloudy 1 -17.2 -5 -20.6 75 75 N 8 13 30.50 1033 10 16 0.00 0.00
6:54 am 06:54 Clear 2 -16.7 -4 -20 76 76 NNE 3 6 30.51 1033 10 16 0.00 0.00
7:54 am 07:54 Cloudy 3 -16.1 -4 -20 72 72 ENE 6 9 30.53 1034 10 16 0.00 0.00
8:54 am 08:54 Cloudy 4 -15.6 -3 -19.4 73 73 ENE 5 7 30.53 1034 10 16 0.00 0.00
9:54 am 09:54 Cloudy 6 -14.4 -3 -19.4 66 66 NE 8 13 30.52 1033 10 16 0.00 0.00
10:54 am 10:54 Mostly Cloudy 7 -13.9 -3 -19.4 63 63 E 6 9 30.50 1033 10 16 0.00 0.00
11:54 am 11:54 Cloudy 9 -12.8 -1 -18.3 64 64 NE 3 6 30.48 1032 10 16 0.00 0.00
12:54 pm 12:54 Cloudy 10 -12.2 -1 -18.3 61 61 VRB 3 6 30.45 1031 10 16 0.00 0.00
1:54 pm 13:54 Cloudy with Light Snow 11 -11.7 -1 -18.3 58 58 Calm 30.44 1031 5 8 0.00 0.03
2:08 pm 14:08 Cloudy with Light Snow 11 -11.7 1 -17.2 64 64 NNW 5 7 30.48 1032 2 3 0.00 0.03
2:25 pm 14:25 Cloudy with Light Snow 10 -12.2 2 -16.7 69 69 N 3 6 30.48 1032 1 1 0.01 0.25
2:37 pm 14:37 Mostly Cloudy with Light Snow 10 -12.2 3 -16.1 73 73 Calm 30.48 1032 1 2 0.01 0.25
2:39 pm 14:39 Mostly Cloudy with Light Snow 10 -12.2 3 -16.1 73 73 NE 3 6 30.48 1032 1 1 0.01 0.25
2:54 pm 14:54 Mostly Cloudy with Light Snow 10 -12.2 4 -15.6 76 76 N 5 7 30.42 1030 1 1 0.02 0.51
3:25 pm 15:25 Mostly Cloudy with Light Snow 10 -12.2 5 -15 80 80 ENE 3 6 30.45 1031 1 2 0.02 0.51
3:41 pm 15:41 Cloudy with Light Snow 10 -12.2 4 -15.6 76 76 E 3 6 30.45 1031 3 4 0.02 0.51
3:54 pm 15:54 Cloudy with Light Snow 10 -12.2 4 -15.6 76 76 ENE 5 7 30.42 1030 2 3 0.02 0.51
4:04 pm 16:04 Cloudy with Light Snow 10 -12.2 4 -15.6 76 76 ENE 5 7 30.45 1031 1 2 0.00 0.03
4:11 pm 16:11 Cloudy with Light Snow 10 -12.2 5 -15 80 80 E 6 9 30.45 1031 1 2 0.00 0.03
4:54 pm 16:54 Mostly Cloudy with Light Snow 10 -12.2 5 -15 80 80 ENE 6 9 30.39 1029 1 1 0.02 0.51
5:06 pm 17:06 Mostly Cloudy with Light Snow 10 -12.2 5 -15 80 80 E 5 7 30.42 1030 1 1 0.00 0.03
5:30 pm 17:30 Cloudy with Light Snow 10 -12.2 5 -15 80 80 ENE 6 9 30.42 1030 1 1 0.01 0.25
5:38 pm 17:38 Cloudy with Light Snow 10 -12.2 5 -15 80 80 NE 6 9 30.42 1030 1 2 0.01 0.25
5:54 pm 17:54 Cloudy with Light Snow 9 -12.8 5 -15 84 84 NE 7 11 30.40 1030 1 1 0.02 0.51
6:02 pm 18:02 Mostly Cloudy with Light Snow 9 -12.8 5 -15 84 84 NE 6 9 30.45 1031 1 2 0.00 0.03
6:11 pm 18:11 Mostly Cloudy with Light Snow 9 -12.8 5 -15 84 84 NE 6 9 30.45 1031 1 1 0.01 0.25
6:23 pm 18:23 Mostly Cloudy with Light Snow 9 -12.8 5 -15 84 84 NNE 6 9 30.45 1031 1 2 0.02 0.51
6:47 pm 18:47 Mostly Cloudy with Light Snow 9 -12.8 5 -15 84 84 NE 6 9 30.45 1031 1 1 0.03 0.76
6:54 pm 18:54 Mostly Cloudy with Light Snow 9 -12.8 5 -15 84 84 NE 6 9 30.41 1030 1 1 0.04 1.02
7:05 pm 19:05 Mostly Cloudy with Light Snow 9 -12.8 5 -15 84 84 NE 6 9 30.45 1031 1 1 0.01 0.25
7:49 pm 19:49 Cloudy with Light Snow 9 -13 5 -15 85 85 ENE 3 6 30.45 1031 2 2 0.03 0.76
7:54 pm 19:54 Cloudy with Light Snow 9 -12.8 5 -15 84 84 NE 5 7 30.43 1030 3 4 0.03 0.76
7:56 pm 19:56 Cloudy with Light Snow 9 -12.8 5 -15 84 84 NE 5 7 30.45 1031 3 5 0.00 0.03
8:29 pm 20:29 Cloudy 10 -12.2 5 -15 80 80 ENE 3 6 30.48 1032 10 16 0.00 0.03
8:54 pm 20:54 Cloudy 10 -12.2 5 -15 80 80 NNW 3 6 30.44 1031 10 16 0.00 0.03
9:54 pm 21:54 Mostly Cloudy 10 -12.2 5 -15 80 80 Calm 30.44 1031 10 16 0.00 0.00
10:54 pm 22:54 Clear 3 -16.1 1 -17.2 91 91 SSW 3 6 30.42 1030 10 16 0.00 0.00
11:54 pm 23:54 Clear -4 -20 -6 -21.1 91 91 SW 3 6 30.44 1031 8 13 0.00 0.00

Powered by AerisWeather